Regional Weather Roundup
Issued by NWS Raleigh/Durham, NC

Home | Current Version | Previous Version | Text Only | Print | Product List | Glossary On
Versions: 1 2 3 4 5 6 7 8 9 10 11 12 13 14 15 16 17 18 19 20 21 22 23 24 25 26 27 28
000
ASUS42 KRAH 222310
RWRRAH
NORTH CAROLINA WEATHER ROUNDUP
NATIONAL WEATHER SERVICE RALEIGH NC
700 PM EDT WED OCT 22 2014

NOTE: "FAIR" INDICATES FEW OR NO CLOUDS BELOW 12,000 FEET WITH NO
SIGNIFICANT WEATHER AND/OR OBSTRUCTIONS TO VISIBILITY.

NCZ001-053-055-056-065-067-230000-
WESTERN NORTH CAROLINA

CITY           SKY/WX    TMP DP  RH WIND       PRES   REMARKS
ASHEVILLE      CLOUDY    51  37  58 NW17G24   30.14S
JEFFERSON      CLOUDY    43  34  71 NW13G26   30.11S
MORGANTON      CLEAR     52  38  58 NW13      30.16S
HICKORY        CLEAR     52  38  58 N7        30.10R
RUTHERFORDTON  CLEAR     53  38  56 N8        30.11S
MOUNT AIRY     PTCLDY    53  40  61 NW6G17    30.10S
BOONE          CLOUDY    43  34  71 NW13G21   30.12S
$$

NCZ021-022-025-041-071-084-088-230000-
CENTRAL NORTH CAROLINA

CITY           SKY/WX    TMP DP  RH WIND       PRES   REMARKS
CHARLOTTE      PTCLDY    57  38  48 N12       30.06R
GREENSBORO     CLEAR     55  39  54 NW8       30.03S
WINSTON-SALEM  CLEAR     55  38  52 NW12G21   30.06S
RALEIGH-DURHAM PTCLDY    59  40  49 VRB6      29.99R
FORT BRAGG     CLEAR     60  43  53 NW6       29.98R
FAYETTEVILLE   PTCLDY    62  42  47 NW10      29.98R
BURLINGTON     CLEAR     57  39  51 W10       30.01R
LAURINBURG     MOCLDY    61  44  53 NW7       30.00R
$$

NCZ011-015-027-028-043-044-047-080-103-230000-
NORTHEASTERN NORTH CAROLINA

CITY           SKY/WX    TMP DP  RH WIND       PRES   REMARKS
ROCKY MT-WILSO CLOUDY    60  46  59 NW5       29.95R
GREENVILLE     PTCLDY    57  50  77 N3        29.96R
WASHINGTON     MOCLDY    58  49  71 NW5       29.93S
ELIZABETH CITY CLOUDY    59  49  69 NW17G26   29.88R
MANTEO         CLOUDY    57  50  77 NW17G26   29.86R
CAPE HATTERAS  CLOUDY    58  52  80 NW15G29   29.87R
$$

NCZ078-087-090-091-093-098-101-230000-
SOUTHEASTERN NORTH CAROLINA

CITY           SKY/WX    TMP DP  RH WIND       PRES   REMARKS
LUMBERTON      CLEAR     58  45  62 NW5       29.98R
GOLDSBORO      MOCLDY    62  47  57 NW5       29.94R
KINSTON        MOCLDY    61  48  63 CALM      29.95R
KENANSVILLE    CLEAR     59  44  57 NW7       29.96S
NEW BERN       CLOUDY    60  49  66 NW5       29.94R
CHERRY POINT   MOCLDY    59  48  67 NW6       29.94R
BEAUFORT       MOCLDY    59  49  69 NW10      29.93R
JACKSONVILLE   PTCLDY    57  50  77 SW3       29.94R
WILMINGTON     CLEAR     61  46  57 W7        29.96R
$$




USA.gov is the U.S. government's official web portal to all federal, state and local government web resources and services.